Regional Weather Roundup
Issued by NWS Northern Indiana

Home | Current Version | Previous Version | Text Only | Print | Product List | Glossary Off
Versions: 1 2 3 4 5 6 7 8 9 10 11 12 13 14 15 16 17 18 19 20 21 22 23 24 25 26 27 28 29 30 31 32 33 34 35 36 37 38 39 40 41 42 43 44 45 46 47 48 49 50

000
ASUS43 KIWX 251300
RWRIWX

KIWX WEATHER ROUNDUP
NATIONAL WEATHER SERVICE NORTHERN INDIANA
900 AM EDT SAT MAR 25 2017

NOTE: "FAIR" INDICATES FEW OR NO CLOUDS BELOW 12,000 FEET WITH NO
SIGNIFICANT WEATHER AND/OR OBSTRUCTIONS TO VISIBILITY.

* THESE STATIONS ARE NOT UNDER NWS QUALITY CONTROL. THEY ALSO MAY NOT
  REPORT WEATHER SUCH AS PRECIPITATION OR FOG.

INZ001>027-251400-
NORTHERN INDIANA

CITY           SKY/WX    TMP DP  RH WIND       PRES   REMARKS
GARY*          LGT RAIN  41  39  93 N7        30.05S FOG
SOUTH BEND     LGT RAIN  49  48  97 E7        30.07R FOG
ELKHART*       LGT RAIN  48  46  93 NE8       30.08R
GOSHEN         PTSUNNY   51  45  79 NE10      30.07R
MONTICELLO*    CLOUDY    54  49  84 E3        30.00S
ANGOLA*        CLOUDY    52  48  87 E8        30.10R
FORT WAYNE     CLOUDY    58  52  80 E3        30.07R
PERU/GRISSOM   CLOUDY    59  56  90 S8        30.01S

$$
INZ028>050-251400-
CENTRAL INDIANA

CITY           SKY/WX    TMP DP  RH WIND       PRES   REMARKS
LAFAYETTE      PTSUNNY   62  53  72 SE10      29.98S
KOKOMO*        CLOUDY    59  53  80 S15       30.04S
MUNCIE*        MOSUNNY   64  50  60 S14       30.06S
INDIANAPOLIS   CLOUDY    61  51  70 SE9       30.03S

$$
MIZ043>046-050>051-056>058-064>065-071>073-077>080-251400-
SOUTHWEST LOWER MICHIGAN

CITY           SKY/WX    TMP DP  RH WIND       PRES   REMARKS
BATTLE CREEK   LGT RAIN  42  41  96 E9        30.13R
BENTON HARBOR  CLOUDY    48  45  89 E7        30.07R FOG
COLDWATER*     CLOUDY    46  44  90 E8        30.11S
HILLSDALE*     CLOUDY    45  41  87 NE6       30.13R
HOLLAND        LGT RAIN  40  37  89 E10G21    30.12R
GRAND RAPIDS   LGT RAIN  37  37 100 NE21      30.15R
KALAMAZOO      CLOUDY    44  40  85 E8        30.12R FOG
STURGIS*       CLOUDY    46  44  92 E12       30.09S FOG
THREE RIVERS*  MIX PCPN  45  44  95 E9        30.10S

$$
OHZ001>008-015>018-024>025-251400-
NORTHWEST OHIO

CITY           SKY/WX    TMP DP  RH WIND       PRES   REMARKS
DEFIANCE       CLOUDY    49  44  83 NE8       30.11R
FINDLAY        CLOUDY    61  51  70 S5        30.10R
TOLEDO EXPRESS CLOUDY    45  40  82 E9        30.13R
TOLEDO METCALF CLOUDY    43  40  89 NE7       30.15R FOG
LIMA           CLOUDY    61  51  70 S9        30.10R

$$
AND FOR LAKE MICHIGAN COASTAL AND OPEN LAKE BUOY OBSERVATIONS

STATION/POSITION TEMP    WIND        PRES    VSBY  WAVE
                 AIR SEA DIR/SP/G                  HT/PER
                 (F)     (DEG/KT/KT) (MB)    (MI)  (FT/S)
CALUMET HARBOR           340/ 11/ 13 1017.0F
MICHIGAN CITY     39     240/  5/  7   N/A
BURNS HARBOR      39     330/  2/  5 1018.3R

$$
&&



USA.gov is the U.S. government's official web portal to all federal, state and local government web resources and services.